BRICSAT2 (USNAP-1)

Last updated on Fri Aug 02 2019 04:15:43 GMT+0000 (Coordinated Universal Time)

1 44355U 19036S 19212.65305804 .00014315 00000-0 22286-3 0 9993 2 44355 28.5311 324.3761 0387138 129.9303 233.5974 14.97650018 5443
UTC large
Height (km)
Speed (km/s)
/
Latitude / Longitude
Inclination (degrees)
Orbital Period (minutes)
Azimuth
Elevation
Range (km)
Doppler Factor

Next 0 passes for location: London (51.5072 / 0.1276)

Sorry there are no passes over London.
BRICSAT2 (USNAP-1)